This is the latest recevied weather packets stored in our database for station/object OK1VOF-13. If no packets are shown the sender has not sent any weather packets the latest 1 day(s).
| Time | Temp. | Humidity | Pressure | Rain* | Wind** | Luminosity | Snow |
|---|---|---|---|---|---|---|---|
| 1778090373 | 20° C | 50% | 1005.6 hPa | 0 mm | - | - | - |
| 1778089183 | 20.56° C | 47% | 1005.6 hPa | 0 mm | - | - | - |
| 1778089178 | 20.56° C | 47% | 1005.6 hPa | 0 mm | - | - | - |
| 1778088884 | 21.11° C | 47% | 1005.6 hPa | 0 mm | - | - | - |
| 1778088585 | 21.67° C | 45% | 1005.8 hPa | 0 mm | - | - | - |
| 1778088580 | 21.67° C | 45% | 1005.8 hPa | 0 mm | - | - | - |
| 1778087684 | 22.78° C | 42% | 1005.7 hPa | 0 mm | - | - | - |
| 1778087385 | 23.33° C | 41% | 1005.7 hPa | 0 mm | - | - | - |
| 1778086190 | 22.78° C | 39% | 1005.7 hPa | 0 mm | - | - | - |
| 1778085294 | 23.33° C | 38% | 1005.7 hPa | 0 mm | - | - | - |
| 1778085000 | 23.33° C | 38% | 1005.6 hPa | 0 mm | - | - | - |
| 1778084995 | 23.33° C | 38% | 1005.6 hPa | 0 mm | - | - | - |
| 1778084701 | 23.33° C | 37% | 1005.5 hPa | 0 mm | - | - | - |
| 1778083501 | 23.89° C | 37% | 1005.8 hPa | 0 mm | - | - | - |
| 1778082007 | 24.44° C | 36% | 1006.2 hPa | 0 mm | - | - | - |
| 1778080513 | 23.33° C | 36% | 1006.4 hPa | 0 mm | - | - | - |
| 1778080214 | 23.33° C | 36% | 1006.4 hPa | 0 mm | - | - | - |
| 1778079019 | 23.89° C | 35% | 1006.7 hPa | 0 mm | - | - | - |
| 1778078720 | 23.89° C | 35% | 1006.6 hPa | 0 mm | - | - | - |
| 1778077525 | 25.56° C | 33% | 1006.8 hPa | 0 mm | - | - | - |
| 1778077226 | 26.11° C | 32% | 1006.9 hPa | 0 mm | - | - | - |
| 1778076031 | 27.22° C | 30% | 1007.1 hPa | 0 mm | - | - | - |
| 1778075732 | 27.22° C | 30% | 1007.3 hPa | 0 mm | - | - | - |
| 1778075434 | 27.78° C | 31% | 1007.3 hPa | 0 mm | - | - | - |
| 1778074243 | 26.67° C | 32% | 1007.6 hPa | 0 mm | - | - | - |
* Rain latest hour (hover to see other rain measurements)
** Current wind speed in m/s (hover to see current wind gust speed)